Location: Bieujac
(44.5398°N, 0.1549°W)
Time: 22:01:12
(UTC+00:00)

Cosmos 2112 Rocket - Pass Details

Date: 17 November 2019
Orbit: 755 x 788 km, 74.1° (Epoch: 12 December)

Event Time Altitude Azimuth Distance (km) Brightness Sun altitude
Exits shadow 04:32:46 67° 206° (SSW) 846 4.0 -26.0°
Drops below altitude 10° 04:37:32 10° 168° (SSE) 2,338 6.6 -25.1°
Sets 04:39:55 0° 167° (SSE) 3,264 7.5 -24.7°
